Date String (YYYY-MM-DD hh:mm:ss) UTC,Instrument flags,Ambient pressure (hPa),Sample flow (lpm),Bypass flow (lpm),Sample temperature (°C),Ambient temperature (°C),ASC tube jacket temperature (°C),LED temperature (°C),Box temperature (°C),Sample RH (%),Span deviation,Mass concentration (μg/m³),Mass concentration (μg/m³),Mass concentration (μg/m³)
DateTimeUTC,F1_M11,P_M11,Q1_M11,Q2_M11,T1_M11,T2_M11,T3_M11,T4_M11,T5_M11,U1_M11,ZSPAN_M11,X0_M11,X2_M11,X1_M11
2022-08-17 19:00:00,,0832.7,4.99,0.00,29.3,27.5,00.0,38.1,31.1,32.9,0000.0,0009.83,0005.41,0004.97
2022-08-17 19:01:00,,0832.7,5.00,0.00,29.3,27.7,00.0,38.1,31.2,31.5,0000.0,0009.72,0005.39,0004.94
2022-08-17 19:02:00,,0832.7,5.00,0.00,29.4,27.9,00.0,38.1,31.3,31.3,0000.0,0009.48,0005.33,0004.92
2022-08-17 19:03:00,,0832.7,5.00,0.00,29.4,28.0,00.0,38.1,31.3,32.1,0000.0,0009.82,0005.29,0004.91
2022-08-17 19:04:00,,0832.7,5.01,0.00,29.4,28.2,00.0,38.2,31.4,30.9,0000.0,0009.17,0005.25,0004.89
2022-08-17 19:05:00,,0832.7,5.01,0.00,29.5,28.3,00.0,38.2,31.4,30.4,0000.0,0009.16,0005.24,0004.87
2022-08-17 19:06:00,,0832.7,5.00,0.00,29.5,28.4,00.0,38.2,31.5,30.7,0000.0,0009.70,0005.24,0004.86
2022-08-17 19:07:00,,0832.7,5.00,0.00,29.5,28.2,00.0,38.2,31.4,30.7,0000.0,0009.76,0005.27,0004.86
2022-08-17 19:08:00,,0832.7,4.99,0.00,29.5,27.5,00.0,38.1,31.2,31.1,0000.0,0009.83,0005.29,0004.85
2022-08-17 19:09:00,,0832.6,5.01,0.00,29.4,27.2,00.0,38.1,31.1,29.8,0000.0,0009.96,0005.33,0004.85
2022-08-17 19:10:00,,0832.7,4.99,0.00,29.3,27.1,00.0,38.1,31.0,31.0,0000.0,0009.97,0005.33,0004.85
2022-08-17 19:11:00,,0832.6,5.01,0.00,29.3,27.2,00.0,38.1,31.1,31.0,0000.0,0009.95,0005.33,0004.86
2022-08-17 19:12:00,,0832.6,4.99,0.00,29.3,27.4,00.0,38.1,31.1,31.3,0000.0,0010.00,0005.34,0004.86
2022-08-17 19:13:00,,0832.6,5.01,0.00,29.3,27.6,00.0,38.1,31.2,30.2,0000.0,0010.12,0005.38,0004.85
2022-08-17 19:14:00,,0832.6,4.99,0.00,29.3,27.7,00.0,38.1,31.2,30.1,0000.0,0009.78,0005.42,0004.86
2022-08-17 19:15:00,,0832.6,5.00,0.00,29.3,27.9,00.0,38.1,31.2,30.1,0000.0,0009.66,0005.41,0004.87
2022-08-17 19:16:00,,0832.6,5.01,0.00,29.4,28.1,00.0,38.1,31.3,28.9,0000.0,0010.81,0005.42,0004.87
2022-08-17 19:17:00,,0832.6,4.99,0.00,29.4,28.2,00.0,38.1,31.4,29.9,0000.0,0010.66,0005.42,0004.86
2022-08-17 19:18:00,,0832.6,5.00,0.00,29.4,28.3,00.0,38.1,31.4,30.6,0000.0,0010.67,0005.38,0004.85
2022-08-17 19:19:00,,0832.6,5.01,0.00,29.5,28.4,00.0,38.1,31.4,31.5,0000.0,0010.60,0005.35,0004.83
2022-08-17 19:20:00,,0832.6,5.00,0.00,29.5,28.1,00.0,38.1,31.3,30.3,0000.0,0010.54,0005.32,0004.83
2022-08-17 19:21:00,,0832.6,5.00,0.00,29.4,27.4,00.0,38.1,31.1,30.4,0000.0,0010.68,0005.32,0004.83
2022-08-17 19:22:00,,0832.6,5.01,0.00,29.3,27.1,00.0,38.0,31.0,29.3,0000.0,0010.79,0005.33,0004.81
2022-08-17 19:23:00,,0832.6,5.01,0.00,29.3,27.1,00.0,38.0,31.0,29.5,0000.4,0010.93,0005.29,0004.80
2022-08-17 19:24:00,,0832.6,5.00,0.00,29.2,27.2,00.0,38.0,31.0,29.5,0000.0,0011.67,0005.26,0004.79
2022-08-17 19:25:00,,0832.5,4.99,0.00,29.2,27.3,00.0,38.0,31.0,29.5,0000.0,0012.02,0005.24,0004.79
2022-08-17 19:26:00,,0832.6,5.00,0.00,29.2,27.5,00.0,38.0,31.1,28.9,0000.0,0012.74,0005.25,0004.77
2022-08-17 19:27:00,,0832.5,5.00,0.00,29.2,27.7,00.0,38.0,31.2,29.1,0000.0,0011.74,0005.25,0004.75
2022-08-17 19:28:00,,0832.5,5.00,0.00,29.3,27.9,00.0,38.0,31.2,28.0,0000.0,0011.58,0005.24,0004.75
2022-08-17 19:29:00,,0832.5,5.01,0.00,29.3,28.0,00.0,38.0,31.3,28.2,0001.1,0011.34,0005.22,0004.73
2022-08-17 19:30:00,,0832.5,5.01,0.00,29.3,28.2,00.0,38.1,31.3,27.6,0002.2,0011.40,0005.21,0004.73
2022-08-17 19:31:00,,0832.4,4.99,0.00,29.4,28.3,00.0,38.1,31.4,27.7,0002.2,0011.77,0005.17,0004.72
2022-08-17 19:32:00,,0832.5,5.01,0.00,29.4,28.4,00.0,38.1,31.4,27.5,0000.2,0011.93,0005.15,0004.69
2022-08-17 19:33:00,,0832.4,5.00,0.00,29.4,27.9,00.0,38.1,31.2,27.6,0000.0,0011.75,0005.11,0004.67
2022-08-17 19:34:00,,0832.5,5.00,0.00,29.3,27.2,00.0,38.0,31.0,28.1,0000.0,0011.74,0005.10,0004.66
2022-08-17 19:35:00,,0832.5,5.01,0.00,29.3,27.0,00.0,38.0,31.0,29.1,0000.0,0011.32,0005.08,0004.65
2022-08-17 19:36:00,,0832.3,5.00,0.00,29.2,27.1,00.0,38.0,30.9,28.1,0000.0,0010.48,0005.08,0004.64
2022-08-17 19:37:00,,0832.3,5.00,0.00,29.2,27.2,00.0,38.0,31.0,27.9,0000.0,0009.81,0005.06,0004.64
2022-08-17 19:38:00,,0832.3,4.99,0.00,29.2,27.4,00.0,38.0,31.0,28.4,0000.0,0010.33,0005.07,0004.65
2022-08-17 19:39:00,,0832.4,5.00,0.00,29.2,27.6,00.0,38.0,31.1,28.9,0000.0,0010.29,0005.05,0004.63
2022-08-17 19:40:00,,0832.3,5.01,0.00,29.2,27.8,00.0,38.0,31.1,27.5,0000.0,0010.16,0005.00,0004.62
2022-08-17 19:41:00,,0832.3,5.00,0.00,29.3,27.9,00.0,38.0,31.2,27.6,0000.0,0010.37,0005.00,0004.60
2022-08-17 19:42:00,,0832.3,5.00,0.00,29.3,28.1,00.0,38.0,31.3,26.8,0000.0,0010.29,0004.97,0004.60
2022-08-17 19:43:00,,0832.3,4.99,0.00,29.3,28.2,00.0,38.0,31.3,26.5,0000.0,0010.20,0004.94,0004.58
2022-08-17 19:44:00,,0832.2,5.01,0.00,29.4,28.3,00.0,38.0,31.4,25.9,0000.0,0010.22,0004.95,0004.57
2022-08-17 19:45:00,,0832.3,5.01,0.00,29.4,28.4,00.0,38.1,31.4,26.1,0000.0,0010.13,0004.96,0004.56
2022-08-17 19:46:00,,0832.3,4.99,0.00,29.4,28.1,00.0,38.0,31.3,26.1,0000.0,0010.38,0004.95,0004.54
2022-08-17 19:47:00,,0832.3,5.00,0.00,29.4,27.5,00.0,38.0,31.2,25.1,0000.0,0010.61,0004.91,0004.52
2022-08-17 19:48:00,,0832.2,4.99,0.00,29.3,27.2,00.0,38.0,31.1,25.5,0000.0,0011.02,0004.90,0004.49
2022-08-17 19:49:00,,0832.2,5.01,0.00,29.2,27.1,00.0,38.0,31.0,23.9,0000.0,0010.63,0004.87,0004.48
2022-08-17 19:50:00,,0832.3,4.99,0.00,29.2,27.2,00.0,38.0,30.9,24.0,0000.0,0010.45,0004.87,0004.47
2022-08-17 19:51:00,,0832.3,4.99,0.00,29.2,27.4,00.0,38.0,31.0,24.3,0000.0,0010.19,0004.87,0004.45
2022-08-17 19:52:00,,0832.3,5.01,0.00,29.2,27.5,00.0,38.0,31.1,25.8,0000.0,0009.91,0004.85,0004.44
2022-08-17 19:53:00,,0832.2,5.00,0.00,29.2,27.7,00.0,38.0,31.1,26.0,0000.0,0009.65,0004.89,0004.44
2022-08-17 19:54:00,,0832.2,5.00,0.00,29.2,27.9,00.0,38.0,31.2,26.3,0000.0,0009.50,0004.91,0004.45
2022-08-17 19:55:00,,0832.3,5.00,0.00,29.3,28.0,00.0,38.0,31.2,26.3,0000.0,0009.47,0004.93,0004.47
2022-08-17 19:56:00,,0832.2,5.00,0.00,29.3,28.2,00.0,38.0,31.3,26.3,0000.0,0009.64,0004.91,0004.47
2022-08-17 19:57:00,,0832.2,4.99,0.00,29.4,28.3,00.0,38.0,31.4,25.9,0000.0,0009.52,0004.93,0004.47
2022-08-17 19:58:00,,0832.3,4.99,0.00,29.4,28.4,00.0,38.0,31.4,25.9,0000.0,0009.08,0004.92,0004.47
2022-08-17 19:59:00,,0832.3,5.00,0.00,29.4,28.0,00.0,38.0,31.3,24.4,0000.0,0009.05,0004.91,0004.47
